This is the latest recevied weather packets stored in our database for station/object KB3KAV. If no packets are shown the sender has not sent any weather packets the latest 10 day(s).
| Time | Temp. | Humidity | Pressure | Rain* | Wind** | Luminosity | Snow |
|---|---|---|---|---|---|---|---|
| 1778167111 | 13.33° C | 40% | 1040.3 hPa | 0 mm | - | 814 W/m² | - |
| 1778166510 | 12.22° C | 41% | 1040.6 hPa | 0 mm | - | 757 W/m² | - |
| 1778165908 | 12.78° C | 43% | 1040.6 hPa | 0 mm | - | 750 W/m² | - |
| 1778165308 | 13.33° C | 43% | 1040.8 hPa | 0 mm | - | 675 W/m² | - |
| 1778164708 | 13.33° C | 42% | 1040.9 hPa | 0 mm | - | 599 W/m² | - |
| 1778164107 | 11.67° C | 44% | 1041 hPa | 0 mm | - | 616 W/m² | - |
| 1778163506 | 12.22° C | 45% | 1041.1 hPa | 0 mm | - | 602 W/m² | - |
| 1778162905 | 12.22° C | 47% | 1041 hPa | 0 mm | - | 591 W/m² | - |
| 1778162300 | 11.67° C | 46% | 1041.1 hPa | 0 mm | - | 570 W/m² | - |
| 1778161700 | 11.67° C | 54% | 1041.4 hPa | 0 mm | - | 519 W/m² | - |
| 1778161097 | 10.56° C | 58% | 1041.4 hPa | 0 mm | - | 456 W/m² | - |
| 1778160498 | 11.11° C | 57% | 1041.5 hPa | 0 mm | - | 432 W/m² | - |
| 1778159897 | 9.44° C | 63% | 1041.6 hPa | 0 mm | - | 401 W/m² | - |
| 1778159296 | 9.44° C | 64% | 1041.7 hPa | 0 mm | - | 62 W/m² | - |
| 1778158693 | 10° C | 67% | 1041.6 hPa | 0 mm | - | 332 W/m² | - |
| 1778158093 | 8.33° C | 70% | 1041.7 hPa | 0 mm | - | 314 W/m² | - |
| 1778157488 | 8.33° C | 71% | 1041.8 hPa | 0 mm | - | 281 W/m² | - |
| 1778156886 | 8.33° C | 72% | 1041.5 hPa | 0 mm | - | 268 W/m² | - |
| 1778156284 | 8.33° C | 72% | 1041.7 hPa | 0 mm | - | 119 W/m² | - |
| 1778155682 | 7.78° C | 75% | 1041.8 hPa | 0 mm | - | 54 W/m² | - |
| 1778155081 | 7.78° C | 83% | 1041.6 hPa | 0 mm | - | 80 W/m² | - |
| 1778154479 | 6.67° C | 90% | 1041.5 hPa | 0 mm | - | 39 W/m² | - |
| 1778153873 | 6.67° C | 95% | 1041.6 hPa | 0 mm | - | 36 W/m² | - |
| 1778153274 | 6.11° C | 95% | 1041.3 hPa | 0 mm | - | 35 W/m² | - |
| 1778152668 | 6.11° C | 95% | 1041.5 hPa | 0 mm | - | 34 W/m² | - |
* Rain latest hour (hover to see other rain measurements)
** Current wind speed in m/s (hover to see current wind gust speed)